CW3518 Weather Reports


time (UTC)temp
C
wind
direction
speed
KPH
gust
KPH
rain 1hr
cm
rain 24hr
cm
rain mn
cm
humidity
%
barometer
mb
20260904092458 26 156 9.7 17.7 0.00 0.00 0.00 83 1013.3
20260904091958 26 192 11.3 17.7 0.00 0.00 0.00 83 1013.2
20260904091458 26 170 8.0 17.7 0.00 0.00 0.00 83 1013.2
20260904090958 26 163 14.5 19.3 0.00 0.00 0.00 83 1013.2
20260904090458 26 172 16.1 19.3 0.00 0.00 0.00 83 1013.2
20260904085958 26 158 8.0 17.7 0.00 0.00 0.00 83 1013.2
20260904085458 26 158 12.9 19.3 0.00 0.00 0.00 83 1013.2
20260904084958 26 165 11.3 19.3 0.00 0.00 0.00 82 1013.2
20260904084458 26 177 12.9 17.7 0.00 0.00 0.00 82 1013.2
20260904083957 26 187 9.7 17.7 0.00 0.00 0.00 82 1013.2
20260904082957 26 144 11.3 17.7 0.00 0.00 0.00 81 1013.2
20260904082457 26 151 11.3 17.7 0.00 0.00 0.00 81 1013.2
20260904081958 26 149 11.3 16.1 0.00 0.00 0.00 81 1013.2
20260904081457 26 158 12.9 16.1 0.00 0.00 0.00 81 1013.2
20260904080958 26 156 8.0 16.1 0.00 0.00 0.00 81 1013.2
20260904080457 26 160 11.3 16.1 0.00 0.00 0.00 80 1013.2
20260904080027 26 166 12.9 16.1 0.00 0.00 0.00 80 1013.2
20260904075528 26 165 11.3 14.5 0.00 0.00 0.00 80 1013.2
20260904075027 26 178 9.7 16.1 0.00 0.00 0.00 80 1013.2
20260904074528 26 197 9.7 16.1 0.00 0.00 0.00 80 1013.2
20260904073957 26 141 8.0 14.5 0.00 0.00 0.00 79 1013.2
20260904073458 26 150 9.7 14.5 0.00 0.00 0.00 79 1013.2
20260904072958 26 135 6.4 16.1 0.00 0.00 0.00 79 1013.3
20260904071957 26 178 8.0 19.3 0.00 0.00 0.00 79 1013.4
20260904071457 26 166 17.7 19.3 0.00 0.00 0.00 79 1013.4
20260904070957 26 172 14.5 17.7 0.00 0.00 0.00 78 1013.4
20260904070027 26 145 11.3 16.1 0.00 0.00 0.00 76 1013.5
20260904065457 26 149 12.9 14.5 0.00 0.00 0.00 76 1013.5
20260904064957 26 149 12.9 19.3 0.00 0.00 0.00 75 1013.5
20260904064457 26 151 14.5 19.3 0.00 0.00 0.00 75 1013.5
20260904062957 26 149 14.5 19.3 0.00 0.00 0.00 74 1013.5
20260904062527 26 154 16.1 17.7 0.00 0.00 0.00 74 1013.5
20260904062026 26 140 14.5 16.1 0.00 0.00 0.00 74 1013.5
20260904061526 26 139 14.5 16.1 0.00 0.00 0.00 74 1013.5
20260904060526 26 154 12.9 14.5 0.00 0.00 0.00 74 1013.5
20260904060026 26 125 11.3 14.5 0.00 0.00 0.00 74 1013.5
20260904055526 26 151 12.9 14.5 0.00 0.00 0.00 74 1013.6
20260904054956 26 128 9.7 17.7 0.00 0.00 0.00 74 1013.6
20260904054457 26 145 11.3 17.7 0.00 0.00 0.00 73 1013.6
20260904053956 26 154 14.5 17.7 0.00 0.00 0.00 73 1013.5
20260904053456 26 154 16.1 17.7 0.00 0.00 0.00 73 1013.5
20260904052957 26 141 17.7 19.3 0.00 0.00 0.00 73 1013.6
20260904052456 26 144 12.9 19.3 0.00 0.00 0.00 73 1013.6
20260904051956 26 146 14.5 17.7 0.00 0.00 0.00 73 1013.6
20260904051456 26 161 14.5 19.3 0.00 0.00 0.00 73 1013.6
20260904050956 26 145 17.7 19.3 0.00 0.00 0.00 73 1013.4
20260904050456 26 129 19.3 19.3 0.00 0.00 0.00 73 1013.4
20260904050029 26 133 14.5 19.3 0.00 0.00 0.00 73 1013.4
20260904045458 26 137 11.3 19.3 0.00 0.00 0.00 72 1013.4
20260904044955 26 127 16.1 20.9 0.00 0.00 0.00 72 1013.4
20260904044456 27 131 14.5 20.9 0.00 0.00 0.00 72 1013.3
20260904043527 27 0 0.0 24.1 0.00 0.00 0.00 70 1013.2
20260904043025 27 137 17.7 22.5 0.00 0.00 0.00 70 1013.2
20260904042456 27 0 0.0 20.9 0.00 0.00 0.00 70 1013.2
20260904041955 27 142 17.7 20.9 0.00 0.00 0.00 70 1013.2
20260904041455 27 139 16.1 20.9 0.00 0.00 0.00 69 1013.2
20260904040525 27 0 0.0 20.9 0.00 0.00 0.00 70 1013.2
20260904040025 27 141 14.5 17.7 0.00 0.00 0.00 71 1013.3
20260904035525 27 134 14.5 24.1 0.00 0.00 0.00 72 1013.4
20260904035025 27 136 16.1 24.1 0.00 0.00 0.00 72 1013.4
20260904034526 27 142 19.3 20.9 0.00 0.00 0.00 72 1013.3
20260904034024 27 137 17.7 19.3 0.00 0.00 0.00 73 1013.4
20260904033025 27 156 14.5 20.9 0.00 0.00 0.00 73 1013.3
20260904032524 27 156 19.3 20.9 0.00 0.00 0.00 72 1013.3
20260904031025 28 0 0.0 20.9 0.00 0.00 0.00 72 1013.2
20260904030526 28 0 0.0 19.3 0.00 0.00 0.00 72 1013.2
20260904030024 28 0 0.0 0.0 0.00 0.00 0.00 71 1013.2
20260904025524 28 0 0.0 0.0 0.00 0.00 0.00 71 1013.1
20260904025024 28 0 0.0 20.9 0.00 0.00 0.00 70 1013.0
20260904024456 28 0 0.0 25.7 0.00 0.00 0.00 69 1012.9
20260904024024 28 0 0.0 25.7 0.00 0.00 0.00 66 1013.0
20260904022955 29 0 0.0 25.7 0.00 0.00 0.00 65 1012.7
20260904022456 29 119 22.5 25.7 0.00 0.00 0.00 64 1012.6
20260904022024 29 123 19.3 24.1 0.00 0.00 0.00 64 1012.6
20260904021526 29 0 0.0 24.1 0.00 0.00 0.00 64 1012.5
20260904020524 29 120 24.1 25.7 0.00 0.00 0.00 64 1012.2
20260904020025 30 0 0.0 24.1 0.00 0.00 0.00 64 1012.1
20260904014524 30 121 24.1 25.7 0.00 0.00 0.00 64 1011.8
20260904014023 30 132 19.3 25.7 0.00 0.00 0.00 64 1011.8
20260904013525 30 119 22.5 27.4 0.00 0.00 0.00 64 1011.7
20260904012026 30 121 24.1 29.0 0.00 0.00 0.00 63 1011.5
20260904011023 30 0 0.0 29.0 0.00 0.00 0.00 63 1011.4
20260904010454 30 0 0.0 30.6 0.00 0.00 0.00 63 1011.5
20260904005953 30 123 22.5 30.6 0.00 0.00 0.00 62 1011.4
20260904005525 30 0 0.0 30.6 0.00 0.00 0.00 62 1011.3
20260904004955 30 139 17.7 25.7 0.00 0.00 0.00 62 1011.3
20260904004454 31 152 16.1 25.7 0.00 0.00 0.00 62 1011.4
20260904004025 31 141 17.7 25.7 0.00 0.00 0.00 62 1011.3
20260904003523 31 132 20.9 25.7 0.00 0.00 0.00 62 1011.3
20260904002953 31 137 22.5 25.7 0.00 0.00 0.00 61 1011.3
20260904002023 31 132 16.1 33.8 0.00 0.00 0.00 61 1011.2
20260904000523 31 130 14.5 27.4 0.00 0.00 0.00 61 1011.1
20260904000023 31 118 17.7 27.4 0.00 0.00 0.00 61 1011.1
20260903235523 31 131 11.3 29.0 0.00 0.00 0.00 62 1011.1
20260903235023 31 100 19.3 29.0 0.00 0.00 0.00 61 1011.1
20260903234524 31 116 22.5 24.1 0.00 0.00 0.00 61 1011.1
20260903233523 31 125 14.5 16.1 0.00 0.00 0.00 59 1011.2
20260903233024 31 153 11.3 24.1 0.00 0.00 0.00 60 1011.2
20260903232454 31 146 9.7 24.1 0.00 0.00 0.00 60 1011.1
20260903231953 31 118 22.5 24.1 0.00 0.00 0.00 60 1011.1
20260903231522 31 138 14.5 32.2 0.00 0.00 0.00 60 1011.0
20260903230954 31 138 14.5 32.2 0.00 0.00 0.00 60 1010.9
20260903230452 32 119 32.2 32.2 0.00 0.00 0.00 59 1010.8
20260903225522 32 144 16.1 24.1 0.00 0.00 0.00 57 1010.8
20260903225023 32 127 16.1 24.1 0.00 0.00 0.00 57 1010.7
20260903224522 32 171 12.9 27.4 0.00 0.00 0.00 57 1010.7
20260903224022 32 132 17.7 29.0 0.00 0.00 0.00 57 1010.8
20260903223022 32 162 17.7 33.8 0.00 0.00 0.00 57 1010.7
20260903222524 33 141 19.3 33.8 0.00 0.00 0.00 57 1010.6
20260903222022 32 133 14.5 27.4 0.00 0.00 0.00 57 1010.7
20260903221522 33 171 12.9 33.8 0.00 0.00 0.00 56 1010.7
20260903221022 33 163 20.9 33.8 0.00 0.00 0.00 56 1010.7
20260903220522 32 140 27.4 32.2 0.00 0.00 0.00 57 1010.6
20260903220022 32 138 17.7 32.2 0.00 0.00 0.00 58 1010.8
20260903214952 33 188 19.3 29.0 0.00 0.00 0.00 57 1010.7
20260903214522 33 175 19.3 29.0 0.00 0.00 0.00 58 1010.7
20260903214022 32 144 20.9 29.0 0.00 0.00 0.00 58 1010.7
20260903213021 32 133 27.4 32.2 0.00 0.00 0.00 59 1010.8
20260903212452 32 128 32.2 33.8 0.00 0.00 0.00 59 1010.7
20260903212022 32 131 20.9 33.8 0.00 0.00 0.00 62 1010.9
20260903211521 31 118 27.4 32.2 0.00 0.00 0.00 63 1010.9
20260903211021 32 146 25.7 32.2 0.00 0.00 0.00 62 1011.0
20260903210521 32 145 20.9 32.2 0.00 0.00 0.00 62 1011.0
20260903210021 32 119 29.0 32.2 0.00 0.00 0.00 62 1011.1
20260903205521 31 140 19.3 32.2 0.00 0.00 0.00 63 1011.2
20260903204521 32 141 17.7 25.7 0.00 0.00 0.00 61 1011.3
20260903204021 32 120 16.1 22.5 0.00 0.00 0.00 61 1011.3
20260903203520 32 175 16.1 29.0 0.00 0.00 0.00 62 1011.4
20260903203020 32 142 17.7 29.0 0.00 0.00 0.00 62 1011.5
20260903202020 32 126 12.9 32.2 0.00 0.00 0.00 61 1011.5
20260903201020 32 160 17.7 33.8 0.00 0.00 0.00 60 1011.5
20260903200520 32 119 25.7 33.8 0.00 0.00 0.00 61 1011.5
20260903195520 33 157 16.1 27.4 0.00 0.00 0.00 57 1011.7
20260903195020 32 165 17.7 25.7 0.00 0.00 0.00 57 1011.8
20260903194520 32 164 24.1 24.1 0.00 0.00 0.00 57 1011.8
20260903194020 32 142 19.3 24.1 0.00 0.00 0.00 58 1011.9
20260903193520 32 147 16.1 27.4 0.00 0.00 0.00 57 1011.9
20260903193020 32 153 16.1 27.4 0.00 0.00 0.00 58 1012.0
20260903192520 32 121 11.3 27.4 0.00 0.00 0.00 56 1012.1
20260903192020 32 193 9.7 25.7 0.00 0.00 0.00 59 1012.2
20260903191520 32 164 19.3 27.4 0.00 0.00 0.00 60 1012.3
20260903191020 32 145 17.7 27.4 0.00 0.00 0.00 61 1012.4
20260903190520 31 173 11.3 24.1 0.00 0.00 0.00 61 1012.5
20260903190020 31 131 14.5 24.1 0.00 0.00 0.00 61 1012.6
20260903185521 31 171 19.3 29.0 0.00 0.00 0.00 61 1012.7
20260903185019 31 182 12.9 29.0 0.00 0.00 0.00 61 1012.8
20260903184520 31 131 8.0 35.4 0.00 0.00 0.00 62 1012.8
20260903184019 31 160 22.5 35.4 0.00 0.00 0.00 61 1012.9
20260903183519 31 131 20.9 32.2 0.00 0.00 0.00 61 1012.9
20260903183020 31 145 11.3 32.2 0.00 0.00 0.00 62 1013.0
20260903182519 32 139 19.3 32.2 0.00 0.00 0.00 62 1013.0
20260903182019 31 119 17.7 32.2 0.00 0.00 0.00 64 1013.1
20260903181519 31 129 16.1 29.0 0.00 0.00 0.00 63 1013.2
20260903181019 31 142 17.7 32.2 0.00 0.00 0.00 64 1013.2
20260903180519 31 0 0.0 32.2 0.00 0.00 0.00 65 1013.1
20260903175519 31 158 19.3 27.4 0.00 0.00 0.00 64 1013.3
20260903175019 31 158 20.9 25.7 0.00 0.00 0.00 64 1013.4
20260903174519 30 130 24.1 24.1 0.00 0.00 0.00 65 1013.4
20260903174019 30 176 14.5 27.4 0.00 0.00 0.00 66 1013.5
20260903173519 30 140 16.1 30.6 0.00 0.00 0.00 66 1013.5
20260903173019 30 119 22.5 30.6 0.00 0.00 0.00 66 1013.6
20260903172519 30 172 25.7 27.4 0.00 0.00 0.00 67 1013.6
20260903172018 30 111 24.1 27.4 0.00 0.00 0.00 65 1013.6
20260903171518 30 162 17.7 29.0 0.00 0.00 0.00 66 1013.7
20260903171018 30 130 20.9 32.2 0.00 0.00 0.00 66 1013.7
20260903170518 30 158 20.9 32.2 0.00 0.00 0.00 67 1013.7
20260903170018 30 157 20.9 24.1 0.00 0.00 0.00 68 1013.8
20260903164518 30 135 14.5 24.1 0.00 0.00 0.00 68 1013.9
20260903164019 30 163 17.7 25.7 0.00 0.00 0.00 66 1013.8
20260903163518 30 185 9.7 25.7 0.00 0.00 0.00 67 1013.9
20260903162518 30 128 24.1 24.1 0.00 0.00 0.00 67 1013.9
20260903162018 30 107 17.7 22.5 0.00 0.00 0.00 68 1014.0
20260903161018 28 165 6.4 25.7 0.00 0.00 0.00 70 1014.0
20260903160518 29 168 12.9 25.7 0.00 0.00 0.00 70 1014.0
20260903160018 29 156 20.9 25.7 0.00 0.00 0.00 69 1014.0
20260903155518 29 140 11.3 24.1 0.00 0.00 0.00 71 1014.0
20260903155018 28 161 12.9 22.5 0.00 0.00 0.00 71 1014.0
20260903154517 28 144 12.9 24.1 0.00 0.00 0.00 72 1014.0
20260903154017 28 158 16.1 24.1 0.00 0.00 0.00 73 1013.9
20260903153517 28 148 22.5 22.5 0.00 0.00 0.00 75 1013.9
20260903153018 28 157 22.5 22.5 0.00 0.00 0.00 74 1013.9
20260903152517 27 0 0.0 22.5 0.00 0.00 0.00 75 1013.9
20260903151517 27 128 12.9 27.4 0.00 0.00 0.00 75 1014.0
20260903151018 27 162 17.7 27.4 0.00 0.00 0.00 75 1013.9
20260903150517 28 107 20.9 25.7 0.00 0.00 0.00 74 1013.9
20260903150017 27 117 19.3 24.1 0.00 0.00 0.00 74 1014.0
20260903145517 27 124 17.7 25.7 0.00 0.00 0.00 74 1014.0
20260903145017 27 123 19.3 25.7 0.00 0.00 0.00 74 1014.0
20260903144517 27 111 20.9 24.1 0.00 0.00 0.00 74 1014.1
20260903144017 27 0 0.0 24.1 0.00 0.00 0.00 74 1014.0
20260903143517 27 112 12.9 24.1 0.00 0.00 0.00 75 1014.1
20260903143017 27 0 0.0 24.1 0.00 0.00 0.00 75 1014.0
20260903142517 27 118 14.5 22.5 0.00 0.00 0.00 75 1014.0
20260903142016 27 141 14.5 20.9 0.00 0.00 0.00 76 1013.9
20260903141516 27 126 12.9 17.7 0.00 0.00 0.00 76 1014.0
20260903141016 27 121 14.5 17.7 0.00 0.00 0.00 77 1014.0
20260903140517 27 114 9.7 17.7 0.00 0.00 0.00 77 1014.0
20260903140016 26 115 11.3 16.1 0.00 0.00 0.00 79 1014.1
20260903135516 26 142 11.3 17.7 0.00 0.00 0.00 80 1014.1
20260903135016 26 93 12.9 20.9 0.00 0.00 0.00 82 1014.1
20260903134016 26 76 17.7 20.9 0.00 0.00 0.00 84 1014.0
20260903133516 26 87 12.9 17.7 0.00 0.00 0.00 84 1014.1
20260903133016 26 95 11.3 16.1 0.00 0.00 0.00 86 1014.1
20260903132516 25 84 14.5 22.5 0.00 0.00 0.00 87 1014.1
20260903132016 25 91 12.9 22.5 0.00 0.00 0.00 88 1014.1
20260903131015 25 105 14.5 17.7 0.00 0.00 0.00 89 1014.2
20260903130517 25 84 14.5 17.7 0.00 0.00 0.00 89 1014.2
20260903130016 25 76 12.9 12.9 0.00 0.00 0.00 87 1014.2
20260903125015 24 91 11.3 11.3 0.00 0.00 0.00 88 1014.2
20260903124515 24 94 8.0 9.7 0.00 0.00 0.00 88 1014.0
20260903124016 24 93 6.4 9.7 0.00 0.00 0.00 88 1013.9
20260903123515 24 90 4.8 6.4 0.00 0.00 0.00 88 1013.7
20260903123015 23 68 3.2 8.0 0.00 0.00 0.00 89 1013.6
20260903121515 24 104 11.3 12.9 0.00 0.00 0.00 88 1013.7
20260903121015 25 117 4.8 4.8 0.00 0.00 0.00 86 1013.6
20260903120015 24 222 3.2 4.8 0.00 0.00 0.00 87 1013.5
20260903115515 24 126 1.6 6.4 0.00 0.00 0.00 88 1013.5
20260903115015 24 18 3.2 6.4 0.00 0.00 0.00 88 1013.4
20260903114515 24 34 4.8 8.0 0.00 0.00 0.00 88 1013.4
20260903114015 24 36 8.0 8.0 0.00 0.00 0.00 88 1013.4
20260903113515 24 81 4.8 9.7 0.00 0.00 0.00 87 1013.5
20260903113015 24 115 6.4 11.3 0.00 0.00 0.00 88 1013.6
20260903112515 24 105 8.0 11.3 0.00 0.00 0.00 88 1013.6
20260903111515 24 97 8.0 8.0 0.00 0.00 0.00 88 1013.5
20260903111015 24 84 8.0 8.0 0.00 0.00 0.00 88 1013.5
20260903110515 24 84 4.8 8.0 0.00 0.00 0.00 88 1013.5
20260903110014 24 84 4.8 9.7 0.00 0.00 0.00 88 1013.4
20260903105515 24 107 8.0 11.3 0.00 0.00 0.00 87 1013.4
20260903104515 24 99 8.0 12.9 0.00 0.00 0.00 87 1013.3
20260903104014 25 104 11.3 12.9 0.00 0.00 0.00 87 1013.3
20260903103515 25 103 9.7 14.5 0.00 0.00 0.00 86 1013.3
20260903102514 24 106 9.7 11.3 0.00 0.00 0.00 87 1013.4
20260903102044 24 86 6.4 6.4 0.00 0.00 0.00 86 1013.4
20260903101514 24 74 4.8 8.0 0.00 0.00 0.00 86 1013.5
20260903101014 25 90 6.4 9.7 0.00 0.00 0.00 85 1013.4
20260903100014 25 98 8.0 8.0 0.00 0.00 0.00 85 1013.5
20260903095014 24 101 6.4 6.4 0.00 0.00 0.00 86 1013.5
20260903094514 24 104 4.8 6.4 0.00 0.00 0.00 86 1013.4
20260903094014 24 45 6.4 6.4 0.00 0.00 0.00 86 1013.4
20260903093513 24 93 4.8 6.4 0.00 0.00 0.00 86 1013.3